Hourly Weather Erd

Today, 29 October, Thursday

Time Temperature Precipitation Wind Pressure Humidity
00:00 +13°C° 0 mm 1 mps 753 mmHg 86%
01:00 +12°C° 0 mm 1 mps 753 mmHg 88%
02:00 +12°C° 0 mm 1 mps 753 mmHg 87%
03:00 +12°C° 0 mm 1 mps 753 mmHg 86%
04:00 +11°C° 0 mm 1 mps 752 mmHg 85%
05:00 +12°C° 0 mm 1 mps 753 mmHg 82%
06:00 +12°C° 0 mm 1 mps 753 mmHg 80%
07:00 +12°C° 0 mm 1 mps 753 mmHg 78%
08:00 +13°C° 0 mm 1 mps 753 mmHg 73%
09:00 +14°C° 0 mm 1 mps 753 mmHg 68%
10:00 +15°C° 0 mm 1 mps 753 mmHg 62%
11:00 +16°C° 0 mm 2 mps 753 mmHg 61%
12:00 +16°C° 0 mm 3 mps 753 mmHg 59%
13:00 +17°C° 0 mm 4 mps 753 mmHg 58%
14:00 +16°C° 0.4 mm 3 mps 753 mmHg 64%
15:00 +14°C° 0.4 mm 3 mps 753 mmHg 71%
16:00 +14°C° 0.4 mm 2 mps 753 mmHg 78%
17:00 +13°C° 1.2 mm 3 mps 754 mmHg 79%
18:00 +12°C° 1.2 mm 3 mps 754 mmHg 80%
19:00 +12°C° 1.2 mm 4 mps 754 mmHg 80%
20:00 +11°C° 0 mm 4 mps 755 mmHg 80%
21:00 +11°C° 0 mm 4 mps 755 mmHg 80%
22:00 +10°C° 0 mm 4 mps 755 mmHg 79%
23:00 +10°C° 0 mm 4 mps 755 mmHg 80%

Tomorrow, 30 October, Friday

Time Temperature Precipitation Wind Pressure Humidity
00:00 +10°C° 0 mm 4 mps 756 mmHg 80%
01:00 +8°C° 0 mm 4 mps 756 mmHg 80%
02:00 +8°C° 0 mm 4 mps 756 mmHg 80%
03:00 +7°C° 0 mm 4 mps 756 mmHg 81%
04:00 +7°C° 0 mm 4 mps 756 mmHg 81%
05:00 +8°C° 0 mm 3 mps 756 mmHg 80%
06:00 +8°C° 0 mm 3 mps 757 mmHg 80%
07:00 +8°C° 0 mm 2 mps 757 mmHg 79%
08:00 +9°C° 0 mm 2 mps 757 mmHg 78%
09:00 +10°C° 0 mm 3 mps 757 mmHg 77%
10:00 +10°C° 0 mm 3 mps 757 mmHg 76%
11:00 +11°C° 0.1 mm 3 mps 757 mmHg 78%
12:00 +11°C° 0.1 mm 3 mps 757 mmHg 80%
13:00 +12°C° 0.1 mm 4 mps 756 mmHg 83%
14:00 +12°C° 0.4 mm 4 mps 756 mmHg 84%
15:00 +11°C° 0.4 mm 4 mps 756 mmHg 85%
16:00 +11°C° 0.4 mm 4 mps 756 mmHg 87%
17:00 +11°C° 0.1 mm 4 mps 756 mmHg 85%
18:00 +12°C° 0.1 mm 4 mps 756 mmHg 84%
19:00 +12°C° 0.1 mm 4 mps 756 mmHg 82%
20:00 +12°C° 0 mm 4 mps 756 mmHg 82%
21:00 +12°C° 0 mm 4 mps 756 mmHg 82%
22:00 +13°C° 0 mm 4 mps 756 mmHg 81%
23:00 +13°C° 0 mm 5 mps 756 mmHg 82%

Day after tomorrow, 31 October, Saturday

Time Temperature Precipitation Wind Pressure Humidity
00:00 +13°C° 0 mm 5 mps 756 mmHg 82%
01:00 +13°C° 0 mm 6 mps 755 mmHg 82%
02:00 +13°C° 0.1 mm 6 mps 755 mmHg 83%
03:00 +13°C° 0.1 mm 6 mps 755 mmHg 83%
04:00 +12°C° 0.1 mm 7 mps 755 mmHg 83%
05:00 +12°C° 0.1 mm 7 mps 755 mmHg 83%
06:00 +12°C° 0.1 mm 7 mps 755 mmHg 83%
07:00 +12°C° 0.1 mm 7 mps 755 mmHg 82%
08:00 +14°C° 0 mm 7 mps 755 mmHg 79%
09:00 +13°C° 0 mm 8 mps 755 mmHg 76%
10:00 +15°C° 0 mm 8 mps 756 mmHg 73%
11:00 +16°C° 0 mm 7 mps 756 mmHg 72%
12:00 +16°C° 0 mm 6 mps 755 mmHg 70%
13:00 +17°C° 0 mm 6 mps 755 mmHg 69%
14:00 +16°C° 0 mm 5 mps 755 mmHg 71%
15:00 +15°C° 0 mm 4 mps 756 mmHg 73%
16:00 +16°C° 0 mm 3 mps 756 mmHg 75%
17:00 +15°C° 0 mm 2 mps 756 mmHg 75%
18:00 +14°C° 0 mm 2 mps 756 mmHg 75%
19:00 +13°C° 0 mm 2 mps 757 mmHg 75%
20:00 +13°C° 0 mm 2 mps 757 mmHg 73%
21:00 +12°C° 0 mm 3 mps 757 mmHg 71%
22:00 +11°C° 0 mm 3 mps 757 mmHg 69%
23:00 +11°C° 0 mm 3 mps 757 mmHg 69%

1 November, Sunday

Time Temperature Precipitation Wind Pressure Humidity
00:00 +12°C° 0 mm 2 mps 757 mmHg 68%
01:00 +10°C° 0 mm 2 mps 757 mmHg 67%
02:00 +10°C° 0 mm 2 mps 757 mmHg 69%
03:00 +9°C° 0 mm 2 mps 757 mmHg 71%
04:00 +10°C° 0 mm 1 mps 757 mmHg 73%
05:00 +9°C° 0 mm 1 mps 757 mmHg 74%
06:00 +9°C° 0 mm 1 mps 757 mmHg 76%
07:00 +9°C° 0 mm 1 mps 757 mmHg 77%
08:00 +10°C° 0 mm 1 mps 757 mmHg 72%
09:00 +10°C° 0 mm 2 mps 757 mmHg 67%
10:00 +12°C° 0 mm 2 mps 757 mmHg 61%
11:00 +13°C° 0 mm 2 mps 757 mmHg 59%
12:00 +14°C° 0 mm 2 mps 757 mmHg 57%
13:00 +14°C° 0 mm 1 mps 757 mmHg 55%
14:00 +14°C° 0 mm 1 mps 756 mmHg 57%
15:00 +14°C° 0 mm 1 mps 756 mmHg 60%
16:00 +13°C° 0 mm 1 mps 756 mmHg 62%
17:00 +12°C° 0 mm 1 mps 756 mmHg 65%
18:00 +12°C° 0 mm 1 mps 756 mmHg 67%
19:00 +11°C° 0 mm 1 mps 756 mmHg 69%
20:00 +11°C° 0 mm 1 mps 756 mmHg 71%
21:00 +10°C° 0 mm 1 mps 756 mmHg 72%
22:00 +10°C° 0 mm 1 mps 756 mmHg 73%
23:00 +10°C° 0 mm 1 mps 756 mmHg 74%

2 November, Monday

Time Temperature Precipitation Wind Pressure Humidity
00:00 +10°C° 0 mm 1 mps 756 mmHg 75%
01:00 +9°C° 0 mm 1 mps 756 mmHg 76%
02:00 +9°C° 0 mm 1 mps 756 mmHg 76%
03:00 +9°C° 0 mm 1 mps 756 mmHg 76%
04:00 +9°C° 0 mm 1 mps 756 mmHg 76%
05:00 +9°C° 0 mm 1 mps 756 mmHg 76%
06:00 +9°C° 0 mm 1 mps 756 mmHg 76%
07:00 +9°C° 0 mm 1 mps 756 mmHg 77%
08:00 +9°C° 0 mm 2 mps 756 mmHg 72%
09:00 +10°C° 0 mm 2 mps 756 mmHg 67%
10:00 +13°C° 0 mm 2 mps 756 mmHg 62%
11:00 +14°C° 0 mm 2 mps 756 mmHg 61%
12:00 +15°C° 0 mm 2 mps 756 mmHg 61%
13:00 +15°C° 0 mm 2 mps 755 mmHg 60%
14:00 +15°C° 0 mm 2 mps 755 mmHg 62%
15:00 +15°C° 0 mm 1 mps 755 mmHg 65%
16:00 +15°C° 0 mm 1 mps 755 mmHg 67%
17:00 +14°C° 0 mm 1 mps 755 mmHg 68%
18:00 +14°C° 0 mm 1 mps 755 mmHg 69%
19:00 +13°C° 0 mm 1 mps 755 mmHg 70%
20:00 +13°C° 0 mm 1 mps 754 mmHg 71%
21:00 +13°C° 0 mm 1 mps 754 mmHg 72%
22:00 +13°C° 0 mm 1 mps 754 mmHg 73%
23:00 +13°C° 0 mm 1 mps 754 mmHg 72%

3 November, Tuesday

Time Temperature Precipitation Wind Pressure Humidity
00:00 +13°C° 0 mm 1 mps 754 mmHg 72%
01:00 +13°C° 0 mm 1 mps 754 mmHg 72%
02:00 +13°C° 0 mm 1 mps 754 mmHg 73%
03:00 +12°C° 0 mm 1 mps 753 mmHg 73%
04:00 +12°C° 0 mm 1 mps 753 mmHg 73%
05:00 +12°C° 0.1 mm 1 mps 753 mmHg 74%
06:00 +12°C° 0.1 mm 1 mps 753 mmHg 74%
07:00 +12°C° 0.1 mm 1 mps 754 mmHg 75%
08:00 +12°C° 0.5 mm 1 mps 754 mmHg 77%
09:00 +11°C° 0.5 mm 1 mps 754 mmHg 80%
10:00 +11°C° 0.5 mm 1 mps 754 mmHg 82%
11:00 +11°C° 0.3 mm 1 mps 754 mmHg 83%
12:00 +12°C° 0.3 mm 1 mps 754 mmHg 83%
13:00 +12°C° 0.3 mm 1 mps 754 mmHg 83%
14:00 +12°C° 0 mm 1 mps 754 mmHg 84%
15:00 +12°C° 0 mm 1 mps 754 mmHg 85%
16:00 +11°C° 0 mm 0 mps 754 mmHg 85%
17:00 +12°C° 0.1 mm 1 mps 754 mmHg 86%
18:00 +11°C° 0.1 mm 1 mps 754 mmHg 87%
19:00 +11°C° 0.1 mm 1 mps 755 mmHg 88%
20:00 +11°C° 0 mm 1 mps 755 mmHg 89%
21:00 +11°C° 0 mm 1 mps 755 mmHg 89%
22:00 +11°C° 0 mm 1 mps 755 mmHg 90%
23:00 +11°C° 0 mm 1 mps 755 mmHg 90%
Show more